[[{"header":{"parameterUnit":"m.s-1","parameterCategory":1,"la1":30.2991,"la2":30.254,"lo1":-89.0895,"lo2":-89.0444,"dy":0.0017,"dx":0.0017,"nx":28,"ny":28,"refTime":"2024-05-15T21:00:00:Z","depth":0,"parameterNumber":2,"parameterNumberName":"U-component_of_WINDS"},"data":[0,0,0,0,0,0,0,0,0,0,0,0,0,0,0,0,0,0,0,0,0,0,0,0,0,0,0,0,0,0,0,0,0,0,0,0,0,0,0,0,0,0,0,0,0,0,0,0,0,0,0,0,0,0,0,0,0,0,1.375,1.3751,0,1.3799,1.3799,1.38,1.378,1.3779,1.3778,1.3777,1.383,1.3833,1.3835,0,0,0,0,0,0,0,0,0,0,0,0,0,1.3646,1.3648,1.375,1.3751,1.3752,1.3799,1.3799,1.38,1.3781,1.3779,1.3778,1.3777,1.3829,1.3832,1.3835,0,0,0,0,0,0,0,0,0,0,0,0,0,1.3693,1.3649,1.375,1.3747,1.3748,1.3799,1.3799,1.38,1.3781,1.3779,1.3777,1.3776,1.3828,1.3832,1.3836,1.3893,0,0,1.3847,1.3849,0,0,0,0,0,0,0,0,1.369,1.3697,1.3747,1.3748,1.3748,1.3782,1.3782,1.3832,1.3781,1.3768,1.3777,1.3775,1.3816,1.382,1.3833,1.3896,1.3898,1.3847,1.385,1.3851,1.3852,0,0,0,0,0,0,0,1.3687,1.3695,1.377,1.3748,1.3749,1.3746,1.375,1.3791,1.3801,1.3769,1.3768,1.3774,1.3816,1.383,1.3834,1.3899,1.3847,1.3851,1.3853,1.3854,1.4015,1.4017,0,0,0,0,0,0,1.3683,1.3692,1.3768,1.3771,1.3714,1.3749,1.3754,1.3773,1.3801,1.3803,1.3775,1.3773,1.3824,1.383,1.3836,1.3908,1.3851,1.3855,1.3857,1.4013,1.4015,1.4017,0,0,0,0,0,0,1.3681,1.369,1.3766,1.3731,1.3741,1.3752,1.3774,1.3775,1.3789,1.3805,1.3807,1.3788,1.3823,1.3831,1.388,1.3909,1.3856,1.386,1.401,1.4013,1.4016,1.405,0,0,0,0,0,0,1.3678,1.3689,1.371,1.3732,1.3743,1.3807,1.3775,1.3777,1.3795,1.3792,1.3817,1.382,1.3822,1.3874,1.3884,1.3914,1.3863,1.4008,1.4012,1.4015,1.4046,1.4054,1.406,0,0,0,0,0,1.3674,1.3718,1.3711,1.372,1.3768,1.3809,1.3815,1.3816,1.3797,1.3819,1.383,1.3819,1.3904,1.3879,1.389,1.3921,1.4006,1.4011,1.4015,1.4043,1.4052,1.406,0,0,0,0,0,0,1.37,1.372,1.3713,1.3765,1.3785,1.3806,1.3833,1.3825,1.3853,1.3849,1.385,1.3856,1.3907,1.3919,1.3891,1.398,1.3953,1.3959,1.3971,1.3979,1.3986,1.3983,1.3866,0,0,0,0,0,1.3711,1.3741,1.3758,1.3802,1.3812,1.3821,1.3839,1.3838,1.386,1.3869,1.3883,1.3906,1.3938,1.3959,1.3989,1.4048,1.4055,1.4075,1.4082,1.4087,1.4094,1.4129,1.4139,1.4032,1.4032,1.4032,0,0,1.3735,1.375,1.3769,1.3807,1.3823,1.3856,1.3828,1.3864,1.3889,1.3874,1.3921,1.3933,1.3959,1.4014,1.4038,1.4025,1.4125,1.4093,1.4098,1.4101,1.4134,1.4145,1.4153,1.4035,1.4035,1.4034,0,0,1.3796,1.3809,1.3848,1.3865,1.3889,1.3895,1.3905,1.3927,1.3934,1.3981,1.3972,1.4003,1.4057,1.4077,1.4094,1.4166,1.4158,1.4175,1.4212,1.4246,1.4255,1.4262,1.429,1.43,1.4181,1.4182,1.4182,0,1.3823,1.3871,1.387,1.3907,1.3925,1.3913,1.3954,1.3971,1.4004,1.4018,1.4002,1.4073,1.4089,1.4149,1.4167,1.418,1.4194,1.4173,1.4253,1.4261,1.4268,1.4295,1.4305,1.4184,1.4183,1.4183,1.4183,0,1.3905,1.3938,1.3967,1.4,1.4021,1.406,1.4067,1.4089,1.4087,1.4095,1.4146,1.4165,1.42,1.4214,1.4212,1.4276,1.4267,1.4252,1.4225,1.428,1.4306,1.4316,1.4187,1.4186,1.4185,1.4185,0,0,1.3982,1.4015,1.4026,1.4041,1.4068,1.4095,1.4135,1.4169,1.4189,1.4213,1.4248,1.4296,1.4283,1.4303,1.4303,1.4333,1.4392,1.4315,1.4316,1.4331,1.4466,1.4478,1.449,1.4386,1.4388,1.439,1.4465,0,1.4047,1.4115,1.4116,1.418,1.4212,1.4202,1.4237,1.4259,1.4269,1.4299,1.431,1.4345,1.4324,1.4336,1.4365,1.4378,1.4419,1.4373,1.4421,1.4423,1.4416,1.4502,1.4515,1.4585,1.4474,1.4476,1.4477,0,1.4131,1.4158,1.4224,1.4249,1.4263,1.4294,1.4327,1.4355,1.4381,1.4386,1.4409,1.4406,1.4449,1.4419,1.4481,1.4449,1.4469,1.4479,1.4482,1.4488,1.4454,1.4513,1.4606,1.4618,1.4492,1.4491,1.449,0,1.4184,1.4236,1.4284,1.4297,1.4327,1.435,1.4363,1.4387,1.4408,1.4437,1.4452,1.4486,1.4505,1.4532,1.454,1.4517,1.4602,1.4572,1.4609,1.461,1.4629,1.4628,1.4729,1.4639,1.4638,1.4638,1.4638,0,1.4257,1.4298,1.4308,1.4338,1.4385,1.4387,1.4435,1.4447,1.4469,1.4502,1.4496,1.4527,1.4534,1.4568,1.4574,1.4626,1.4634,1.4641,1.4642,1.4642,1.4642,1.4657,1.4653,1.4641,1.464,1.464,1.4639,0,1.4324,1.4332,1.4383,1.4407,1.4414,1.4449,1.447,1.45,1.4509,1.4551,1.4562,1.4577,1.4617,1.4626,1.4674,1.4678,1.474,1.4735,1.4731,1.4731,1.4769,1.4766,1.4885,1.4902,1.4798,1.4799,1.48,0,1.437,1.4402,1.443,1.4452,1.4467,1.4501,1.4523,1.4527,1.4551,1.4584,1.461,1.4649,1.468,1.4745,1.4762,1.4799,1.4797,1.4836,1.4802,1.4803,1.48,1.4799,1.4804,1.4843,1.4844,1.4845,1.4845,0,1.4454,1.4456,1.4487,1.4521,1.4547,1.4574,1.46,1.4618,1.4627,1.4654,1.4694,1.4719,1.4768,1.4808,1.4846,1.4862,1.4857,1.4856,1.4867,1.4868,1.4865,1.487,1.475,1.4853,1.4853,1.4852,1.4852,1.4851,1.4513,1.4542,1.4567,1.4603,1.4623,1.4648,1.4677,1.4691,1.4724,1.4764,1.4765,1.481,1.4837,1.4888,1.4906,1.4943,1.4931,1.4947,1.4951,1.4955,1.496,1.4858,1.495,1.4949,1.4949,1.4949,1.4949,0,1.4598,1.4614,1.4647,1.4683,1.4712,1.4703,1.4732,1.4757,1.4797,1.4822,1.4854,1.4902,1.4941,1.4961,1.5001,1.5027,1.5026,1.5037,1.5036,1.5041,1.4966,1.4954,1.5038,1.5038,1.5038,1.5038,1.5038,1.5038,1.4645,1.4695,1.4701,1.4762,1.4778,1.4821,1.4839,1.4863,1.4883,1.4937,1.497,1.4982,1.5007,1.5049,1.5085,1.509,1.5106,1.512,1.5124,1.5055,1.5046,1.5037,1.5025,1.5123,1.5123,1.5196,1.5196,1.5197]},{"header":{"parameterUnit":"m.s-1","parameterCategory":1,"la1":30.2991,"la2":30.254,"lo1":-89.0895,"lo2":-89.0444,"dy":0.0017,"dx":0.0017,"nx":28,"ny":28,"refTime":"2024-05-15T21:00:00:Z","depth":0,"parameterNumber":3,"parameterNumberName":"V-component_of_WINDS"},"data":[0,0,0,0,0,0,0,0,0,0,0,0,0,0,0,0,0,0,0,0,0,0,0,0,0,0,0,0,0,0,0,0,0,0,0,0,0,0,0,0,0,0,0,0,0,0,0,0,0,0,0,0,0,0,0,0,0,0,-1.2467,-1.2465,0,-1.2276,-1.2273,-1.2271,-1.223,-1.2231,-1.2233,-1.2234,-1.2031,-1.2024,-1.2017,0,0,0,0,0,0,0,0,0,0,0,0,0,-1.2789,-1.2783,-1.2467,-1.2465,-1.2462,-1.2276,-1.2273,-1.2271,-1.223,-1.2231,-1.2233,-1.2235,-1.2033,-1.2025,-1.2017,0,0,0,0,0,0,0,0,0,0,0,0,0,-1.2628,-1.2781,-1.2468,-1.242,-1.2413,-1.2276,-1.2273,-1.227,-1.2229,-1.2231,-1.2233,-1.2235,-1.2035,-1.2026,-1.2016,-1.1911,0,0,-1.1985,-1.198,0,0,0,0,0,0,0,0,-1.2637,-1.2616,-1.2429,-1.2423,-1.2416,-1.2279,-1.2312,-1.2149,-1.2229,-1.2299,-1.2234,-1.2236,-1.2111,-1.2095,-1.2054,-1.1901,-1.1892,-1.1984,-1.1978,-1.1973,-1.1971,0,0,0,0,0,0,0,-1.2648,-1.2624,-1.2391,-1.2426,-1.2418,-1.2405,-1.2384,-1.2281,-1.2195,-1.2293,-1.229,-1.2268,-1.2108,-1.2064,-1.2049,-1.1889,-1.1984,-1.1975,-1.1969,-1.1965,-1.1636,-1.1634,0,0,0,0,0,0,-1.2669,-1.2634,-1.2397,-1.2385,-1.2534,-1.2397,-1.2374,-1.232,-1.2196,-1.2179,-1.2266,-1.2267,-1.208,-1.2061,-1.2042,-1.1907,-1.1974,-1.1964,-1.1958,-1.1639,-1.1636,-1.1633,0,0,0,0,0,0,-1.2676,-1.2648,-1.2405,-1.2509,-1.2477,-1.2389,-1.2329,-1.2316,-1.2272,-1.2176,-1.216,-1.2238,-1.2081,-1.2056,-1.1943,-1.19,-1.1959,-1.195,-1.1642,-1.1638,-1.1634,-1.164,0,0,0,0,0,0,-1.2686,-1.2651,-1.2613,-1.2508,-1.2471,-1.2312,-1.2327,-1.231,-1.2255,-1.2254,-1.2145,-1.2129,-1.2081,-1.1958,-1.1933,-1.1887,-1.1942,-1.1645,-1.164,-1.1635,-1.1643,-1.1637,-1.1631,0,0,0,0,0,-1.2697,-1.2621,-1.2611,-1.2583,-1.2422,-1.231,-1.2289,-1.2237,-1.2252,-1.2211,-1.2149,-1.2132,-1.1909,-1.1947,-1.1918,-1.1869,-1.1648,-1.1642,-1.1636,-1.1646,-1.1638,-1.1631,0,0,0,0,0,0,-1.2721,-1.2607,-1.2594,-1.2483,-1.2407,-1.2303,-1.225,-1.2231,-1.2147,-1.2149,-1.2086,-1.2061,-1.1951,-1.1899,-1.1943,-1.1758,-1.1779,-1.1767,-1.1796,-1.1788,-1.1782,-1.1796,-1.1934,0,0,0,0,0,-1.2714,-1.2636,-1.2539,-1.245,-1.2412,-1.2338,-1.2287,-1.2254,-1.2171,-1.2138,-1.2068,-1.1987,-1.1897,-1.184,-1.1754,-1.1636,-1.1609,-1.1587,-1.1581,-1.1577,-1.1566,-1.1496,-1.1484,-1.1613,-1.1613,-1.1613,0,0,-1.2697,-1.2625,-1.2579,-1.2453,-1.239,-1.2306,-1.2311,-1.2224,-1.216,-1.2124,-1.2013,-1.1959,-1.1863,-1.1747,-1.1692,-1.17,-1.1525,-1.1569,-1.1566,-1.1558,-1.1489,-1.1476,-1.1466,-1.1609,-1.1609,-1.161,0,0,-1.2624,-1.2564,-1.2481,-1.2418,-1.2323,-1.2273,-1.2254,-1.2153,-1.2115,-1.2004,-1.1974,-1.1896,-1.1746,-1.1678,-1.1623,-1.1522,-1.1502,-1.1495,-1.1463,-1.1395,-1.1385,-1.1376,-1.1336,-1.1323,-1.1486,-1.1486,-1.1486,0,-1.2615,-1.2491,-1.244,-1.2353,-1.2297,-1.2263,-1.2176,-1.2117,-1.1997,-1.1957,-1.1969,-1.1776,-1.171,-1.1575,-1.155,-1.1509,-1.1481,-1.1507,-1.1391,-1.1381,-1.1371,-1.1333,-1.1318,-1.1485,-1.1485,-1.1485,-1.1485,0,-1.2482,-1.2396,-1.2341,-1.2228,-1.2165,-1.2079,-1.2012,-1.1954,-1.1926,-1.1874,-1.1758,-1.1677,-1.1572,-1.1538,-1.1509,-1.1397,-1.1405,-1.1404,-1.1423,-1.136,-1.1322,-1.1307,-1.1485,-1.1485,-1.1485,-1.1485,0,0,-1.2418,-1.2278,-1.2258,-1.2205,-1.2097,-1.2028,-1.1939,-1.1837,-1.1787,-1.1705,-1.1626,-1.1499,-1.1497,-1.1435,-1.1398,-1.1339,-1.1259,-1.1345,-1.1341,-1.1329,-1.1127,-1.1126,-1.111,-1.1246,-1.1243,-1.1241,-1.1133,0,-1.2329,-1.2171,-1.2122,-1.1988,-1.1906,-1.1871,-1.1793,-1.1716,-1.1665,-1.1585,-1.1528,-1.1437,-1.1444,-1.1406,-1.1346,-1.1282,-1.1217,-1.1289,-1.1168,-1.1164,-1.119,-1.109,-1.1089,-1.0992,-1.1119,-1.1116,-1.1114,0,-1.2204,-1.2122,-1.1981,-1.188,-1.1844,-1.1775,-1.1676,-1.1602,-1.1512,-1.1479,-1.141,-1.1377,-1.1278,-1.1305,-1.1166,-1.1216,-1.1163,-1.1124,-1.1119,-1.1103,-1.1134,-1.1069,-1.096,-1.0944,-1.1091,-1.1093,-1.1095,0,-1.2168,-1.2021,-1.1917,-1.1873,-1.1754,-1.1706,-1.1653,-1.1567,-1.1508,-1.1421,-1.1381,-1.1284,-1.1229,-1.1152,-1.1093,-1.1118,-1.0957,-1.098,-1.0923,-1.0924,-1.0889,-1.0891,-1.0767,-1.0861,-1.0861,-1.0861,-1.0861,0,-1.2072,-1.1986,-1.1898,-1.1834,-1.1735,-1.1678,-1.1581,-1.1526,-1.1449,-1.137,-1.1334,-1.1261,-1.1188,-1.1104,-1.1056,-1.0946,-1.0922,-1.089,-1.0877,-1.0891,-1.0895,-1.0854,-1.0858,-1.0857,-1.0858,-1.0859,-1.0859,0,-1.2013,-1.1952,-1.1835,-1.1732,-1.1704,-1.1636,-1.1546,-1.148,-1.1428,-1.1328,-1.1302,-1.1218,-1.1117,-1.105,-1.0921,-1.0889,-1.0767,-1.0758,-1.0798,-1.0791,-1.0737,-1.0742,-1.0579,-1.0553,-1.0668,-1.0667,-1.0666,0,-1.1955,-1.1888,-1.1778,-1.1724,-1.1672,-1.1585,-1.1525,-1.1465,-1.1403,-1.1295,-1.1241,-1.1138,-1.1052,-1.0891,-1.0817,-1.0717,-1.0703,-1.0653,-1.0687,-1.0702,-1.0697,-1.0701,-1.0692,-1.0646,-1.0645,-1.0645,-1.0644,0,-1.1856,-1.1828,-1.1745,-1.1649,-1.1579,-1.15,-1.1421,-1.1378,-1.1304,-1.1236,-1.1133,-1.1066,-1.0934,-1.083,-1.0723,-1.0665,-1.064,-1.0634,-1.0615,-1.0627,-1.0651,-1.0633,-1.0779,-1.0637,-1.0638,-1.0639,-1.0639,-1.0639,-1.1792,-1.173,-1.1643,-1.1549,-1.1484,-1.141,-1.1343,-1.1282,-1.1196,-1.1085,-1.1054,-1.0945,-1.0854,-1.0707,-1.0648,-1.056,-1.0565,-1.0538,-1.0531,-1.0524,-1.0522,-1.0668,-1.054,-1.054,-1.054,-1.054,-1.0541,0,-1.1689,-1.1631,-1.1546,-1.1437,-1.1362,-1.1349,-1.126,-1.1197,-1.1103,-1.1022,-1.0938,-1.0817,-1.0716,-1.0634,-1.0528,-1.0473,-1.0459,-1.0447,-1.0449,-1.0435,-1.0525,-1.055,-1.046,-1.046,-1.046,-1.046,-1.046,-1.046,-1.1626,-1.1518,-1.148,-1.1338,-1.128,-1.1175,-1.1125,-1.1055,-1.0989,-1.0857,-1.0774,-1.0722,-1.0638,-1.0526,-1.0431,-1.0409,-1.037,-1.036,-1.0335,-1.042,-1.0429,-1.0438,-1.0461,-1.0353,-1.0353,-1.0252,-1.0251,-1.0251]}]]